This is the latest recevied weather packets stored in our database for station/object DB2AG-13. If no packets are shown the sender has not sent any weather packets the latest 10 day(s).
| Time | Temp. | Humidity | Pressure | Rain* | Wind** | Luminosity | Snow |
|---|---|---|---|---|---|---|---|
| 1787986773 | 19.44° C | 57% | 1013.6 hPa | - | - | - | - |
| 1787986236 | 18.89° C | 59% | 1013.3 hPa | - | - | - | - |
| 1787985705 | 17.22° C | 64% | 1013.6 hPa | - | - | - | - |
| 1787985170 | 16.11° C | 66% | 1013.6 hPa | - | - | - | - |
| 1787984101 | 15.56° C | 68% | 1013.5 hPa | - | - | - | - |
| 1787983569 | 15.56° C | 68% | 1013.6 hPa | - | - | - | - |
| 1787983035 | 15.56° C | 67% | 1013.5 hPa | - | - | - | - |
| 1787982500 | 16.11° C | 66% | 1013.6 hPa | - | - | - | - |
| 1787981969 | 16.67° C | 65% | 1013.6 hPa | - | - | - | - |
| 1787980890 | 16.67° C | 67% | 1013.6 hPa | - | - | - | - |
| 1787980354 | 15.56° C | 69% | 1013.5 hPa | - | - | - | - |
| 1787979825 | 15.56° C | 70% | 1013.5 hPa | - | - | - | - |
| 1787978753 | 15° C | 71% | 1013.3 hPa | - | - | - | - |
| 1787977660 | 15° C | 71% | 1013.2 hPa | - | - | - | - |
| 1787977115 | 15° C | 72% | 1013.1 hPa | - | - | - | - |
| 1787976576 | 15° C | 72% | 1013.2 hPa | - | - | - | - |
| 1787976033 | 15° C | 72% | 1013.2 hPa | - | - | - | - |
| 1787975489 | 15° C | 72% | 1013.2 hPa | - | - | - | - |
| 1787974950 | 15° C | 72% | 1013.3 hPa | - | - | - | - |
| 1787974406 | 15° C | 73% | 1013.2 hPa | - | - | - | - |
| 1787973865 | 15° C | 73% | 1013.2 hPa | - | - | - | - |
| 1787973324 | 15° C | 73% | 1013.3 hPa | - | - | - | - |
| 1787972234 | 15° C | 72% | 1013.3 hPa | - | - | - | - |
| 1787971687 | 15° C | 72% | 1013.4 hPa | - | - | - | - |
| 1787971145 | 15° C | 72% | 1013.4 hPa | - | - | - | - |
* Rain since midnight (hover to see other rain measurements)
** Current wind speed in m/s (hover to see current wind gust speed)